Location: Champseau
(45.8333°N, 1.7667°E)
Time: 18:21:18
(UTC+00:00)

Meteor 2-3 Rocket - Pass Details

Date: 18 April 2021
Orbit: 841 x 886 km, 81.2° (Epoch: 12 May)

Event Time Altitude Azimuth Distance (km) Brightness Sun altitude
Rises 20:38:13 0° 352° (N) 3,492 7.6 -18.3°
Reaches altitude 10° 20:40:45 10° 357° (N) 2,544 6.8 -18.7°
Maximum altitude 20:46:25 54° 75° (ENE) 1,048 3.9 -19.4°
Enters shadow 20:48:26 37° 131° (SE) 1,332 4.2 -19.7°
